Location: Alumbaugh
(37.5976°N, 83.9299°W)
Time: 16:46:21
(UTC+00:00)

Max Valier Satellite - Visible Passes

Search period start: 18 April 2024 00:00
Search period end: 28 April 2024 00:00
Orbit: 362 x 370 km, 97.1° (Epoch: 18 April)

Date Brightness Start Highest point End Pass type
(mag) Time Alt. Az. Time Alt. Az. Time Alt. Az.
18 Apr ? 00:40:57 10° SE 00:43:30 29° ENE 00:46:05 10° N visible
19 Apr ? 01:11:03 10° S 01:13:56 77° W 01:16:49 10° NNW visible
20 Apr ? 01:41:49 10° SSW 01:44:10 22° W 01:46:31 10° NW visible
21 Apr ? 00:40:32 10° SE 00:43:05 28° ENE 00:45:38 10° NNE visible
22 Apr ? 01:09:46 10° S 01:12:38 83° WSW 01:15:32 10° NNW visible
23 Apr ? 01:39:35 10° SSW 01:42:00 24° W 01:44:27 10° NW visible
25 Apr ? 01:05:57 10° SSE 01:08:50 82° ENE 01:11:43 10° N visible
26 Apr ? 01:34:46 10° SSW 01:37:19 29° W 01:39:55 10° NW visible
27 Apr ? 02:04:42 10° WSW 02:05:38 11° W 02:06:36 10° WNW visible
